Satellite-Ground Cal/Val Region Overpasses Predictions

Prediction of Satellite NPP Overpassing Cal/Val Region: PacNW

Region Location: (Latitude: 10.00, Longitude: 139.50) to (Latitude: 22.70, Longitude: 165.60).

Table of predicted overpasses for the next 14.0 days since TLE Epoch: 1/17/2015
Interval Starting Time Starting Location Ending Time Ending Location
1 01/18/2015 02:17:20 ( 19.49, 165.59) 01/18/2015 02:18:14 ( 22.65, 164.81)
2 01/18/2015 03:56:09 ( 10.05, 142.42) 01/18/2015 03:59:39 ( 22.38, 139.50)
3 01/18/2015 14:46:31 ( 22.68, 165.01) 01/18/2015 14:50:06 ( 10.05, 162.02)
4 01/18/2015 16:28:01 ( 22.67, 139.64) 01/18/2015 16:28:10 ( 22.14, 139.50)
5 01/19/2015 03:37:05 ( 10.01, 147.19) 01/19/2015 03:40:41 ( 22.70, 144.19)
6 01/19/2015 16:08:56 ( 22.70, 144.40) 01/19/2015 16:12:32 ( 10.01, 141.40)
7 01/20/2015 03:18:01 ( 10.04, 151.95) 01/20/2015 03:21:36 ( 22.66, 148.96)
8 01/20/2015 15:49:53 ( 22.67, 149.16) 01/20/2015 15:53:28 ( 10.04, 146.17)
9 01/21/2015 02:58:57 ( 10.01, 156.72) 01/21/2015 03:02:33 ( 22.69, 153.71)
10 01/21/2015 15:30:48 ( 22.70, 153.93) 01/21/2015 15:34:24 ( 10.01, 150.92)
11 01/22/2015 02:39:53 ( 10.04, 161.47) 01/22/2015 02:43:28 ( 22.66, 158.48)
12 01/22/2015 15:11:45 ( 22.67, 158.68) 01/22/2015 15:15:20 ( 10.04, 155.69)
13 01/23/2015 02:21:37 ( 12.83, 165.59) 01/23/2015 02:24:25 ( 22.69, 163.23)
14 01/23/2015 04:02:19 ( 10.03, 140.86) 01/23/2015 04:03:59 ( 15.90, 139.50)
15 01/23/2015 14:52:41 ( 22.69, 163.45) 01/23/2015 14:56:17 ( 10.01, 160.44)
16 01/24/2015 03:43:15 ( 10.06, 145.62) 01/24/2015 03:46:50 ( 22.68, 142.62)
17 01/24/2015 14:36:44 ( 11.68, 165.59) 01/24/2015 14:37:12 ( 10.04, 165.21)
18 01/24/2015 16:15:07 ( 22.65, 142.83) 01/24/2015 16:18:42 ( 10.02, 139.84)
19 01/25/2015 03:24:11 ( 10.03, 150.38) 01/25/2015 03:27:46 ( 22.65, 147.39)
20 01/25/2015 15:56:03 ( 22.67, 147.60) 01/25/2015 15:59:38 ( 10.05, 144.60)
21 01/26/2015 03:05:06 ( 10.00, 155.15) 01/26/2015 03:08:42 ( 22.69, 152.15)
22 01/26/2015 15:36:59 ( 22.64, 152.35) 01/26/2015 15:40:34 ( 10.02, 149.36)
23 01/27/2015 02:46:03 ( 10.04, 159.91) 01/27/2015 02:49:38 ( 22.66, 156.91)
24 01/27/2015 15:17:55 ( 22.67, 157.12) 01/27/2015 15:21:30 ( 10.04, 154.13)
25 01/28/2015 02:26:58 ( 10.01, 164.67) 01/28/2015 02:30:34 ( 22.69, 161.67)
26 01/28/2015 14:58:50 ( 22.69, 161.89) 01/28/2015 15:02:26 ( 10.01, 158.88)
27 01/29/2015 03:49:24 ( 10.00, 144.06) 01/29/2015 03:53:00 ( 22.69, 141.06)
28 01/29/2015 14:41:00 ( 18.37, 165.59) 01/29/2015 14:43:22 ( 10.03, 163.65)
29 01/29/2015 16:21:16 ( 22.70, 141.28) 01/29/2015 16:23:21 ( 15.36, 139.50)
30 01/30/2015 03:30:20 ( 10.04, 148.82) 01/30/2015 03:33:55 ( 22.66, 145.83)
31 01/30/2015 16:02:12 ( 22.66, 146.03) 01/30/2015 16:05:47 ( 10.04, 143.04)
32 01/31/2015 03:11:16 ( 10.02, 153.58) 01/31/2015 03:14:52 ( 22.70, 150.58)


NCC Satellite Cal/Val Overpasses Prediction Service
